Simultaneous Nadir Overpasses (SNOs) Predictions

Prediction of SNOs between AQUA and METOP-B Satellite Orbit:

Table of predicted SNOs for the next 14.0 days since TLE Epoch: 10/24/2020
Index Date (AQUA) Time (AQUA) Lat,Lon (AQUA) SZA (AQUA ) Date (METOP-B) Time (METOP-B) Lat,Lon (METOP-B) SZA (METOP-B ) Distance(km) Time Diff (sec)
1 10/26/2020 21:53:50 73.52,-153.58 86.27 10/26/2020 21:52:39 73.48,-154.70 86.24 35.84 71
2 10/26/2020 22:43:22 -73.84, 13.38 93.41 10/26/2020 22:43:14 -73.84, 13.47 93.40 2.85 8
3 10/26/2020 23:32:50 73.88,-179.08 86.66 10/26/2020 23:33:52 73.91,-179.04 86.68 3.13 62
4 10/29/2020 17:28:10 73.76, -87.66 87.45 10/29/2020 17:26:57 73.76, -87.64 87.45 0.55 73
5 10/29/2020 18:17:37 -73.81, 79.87 92.49 10/29/2020 18:17:38 -73.83, 79.84 92.48 1.74 1
6 10/29/2020 19:07:06 73.91,-112.72 87.63 10/29/2020 19:08:16 73.89,-112.67 87.60 2.91 70
7 11/01/2020 13:02:25 73.75, -21.20 88.34 11/01/2020 13:01:21 73.74, -21.28 88.34 2.71 64
8 11/01/2020 13:51:53 -73.85, 146.21 91.54 11/01/2020 13:52:01 -73.86, 146.32 91.54 3.21 8
9 11/01/2020 14:41:25 74.11, -46.72 88.73 11/01/2020 14:42:35 74.12, -45.71 88.74 31.05 70
10 11/04/2020 08:36:39 73.75, 45.24 89.22 11/04/2020 08:35:43 73.77, 45.19 89.25 2.88 56
11 11/04/2020 09:26:07 -73.85,-147.35 90.67 11/04/2020 09:26:24 -73.84,-147.33 90.69 1.94 17
12 11/04/2020 10:15:45 74.42, 18.99 89.93 11/04/2020 10:16:52 74.39, 21.40 89.88 72.11 67
